Location: Étouvelles
(49.5207°N, 3.5808°E)
Time: 14:09:20
(UTC+00:00)

IRIDIUM 103 - Pass Details

Date: 03 February 2023
Orbit: 776 x 779 km, 86.4° (Epoch: 21 March)

Event Time Altitude Azimuth Distance (km) Brightness Sun altitude
Rises 18:44:22 0° 354° (N) 3,277 7.6 -19.7°
Reaches altitude 10° 18:46:44 10° 353° (N) 2,344 6.9 -20.0°
Maximum altitude 18:51:59 76° 269° (W) 807 4.5 -20.9°
Drops below altitude 10° 18:57:10 10° 184° (S) 2,324 6.8 -21.7°
Sets 18:59:30 0° 183° (S) 3,247 7.6 -22.1°
